[[{"header":{"parameterUnit":"m.s-1","parameterCategory":1,"la1":30.2991,"la2":30.254,"lo1":-89.0895,"lo2":-89.0444,"dy":0.0017,"dx":0.0017,"nx":28,"ny":28,"refTime":"2024-03-13T09:00:00:Z","depth":0,"parameterNumber":2,"parameterNumberName":"U-component_of_WINDS"},"data":[0,0,0,0,0,0,0,0,0,0,0,0,0,0,0,0,0,0,0,0,0,0,0,0,0,0,0,0,0,0,0,0,0,0,0,0,0,0,0,0,0,0,0,0,0,0,0,0,0,0,0,0,0,0,0,0,0,0,-2.675,-2.6751,0,-2.6806,-2.6806,-2.6807,-2.6783,-2.6782,-2.678,-2.6779,-2.6835,-2.6838,-2.684,0,0,0,0,0,0,0,0,0,0,0,0,0,-2.6626,-2.6628,-2.675,-2.6751,-2.6752,-2.6805,-2.6806,-2.6807,-2.6783,-2.6781,-2.678,-2.6778,-2.6834,-2.6837,-2.6841,0,0,0,0,0,0,0,0,0,0,0,0,0,-2.668,-2.6629,-2.675,-2.6746,-2.6746,-2.6805,-2.6806,-2.6807,-2.6783,-2.6781,-2.6779,-2.6778,-2.6833,-2.6837,-2.6841,-2.6907,0,0,-2.6854,-2.6855,0,0,0,0,0,0,0,0,-2.6677,-2.6685,-2.6746,-2.6747,-2.6747,-2.6785,-2.6783,-2.6841,-2.6784,-2.6769,-2.6779,-2.6777,-2.682,-2.6825,-2.684,-2.6909,-2.6912,-2.6854,-2.6857,-2.6858,-2.6859,0,0,0,0,0,0,0,-2.6673,-2.6682,-2.6772,-2.6747,-2.6748,-2.6742,-2.6748,-2.6794,-2.6805,-2.6771,-2.6769,-2.6776,-2.682,-2.6836,-2.6841,-2.6913,-2.6854,-2.6858,-2.686,-2.6862,-2.7041,-2.7043,0,0,0,0,0,0,-2.6669,-2.6679,-2.677,-2.6774,-2.6706,-2.6746,-2.6752,-2.6775,-2.6805,-2.6807,-2.6777,-2.6774,-2.683,-2.6836,-2.6843,-2.6923,-2.6858,-2.6862,-2.6864,-2.7039,-2.7042,-2.7044,0,0,0,0,0,0,-2.6667,-2.6678,-2.6768,-2.6726,-2.6737,-2.675,-2.6776,-2.6777,-2.6793,-2.681,-2.6812,-2.6792,-2.6829,-2.6837,-2.6892,-2.6924,-2.6864,-2.6868,-2.7036,-2.704,-2.7043,-2.7082,0,0,0,0,0,0,-2.6663,-2.6677,-2.6701,-2.6727,-2.674,-2.6815,-2.6778,-2.678,-2.68,-2.6797,-2.6824,-2.6826,-2.6828,-2.6886,-2.6896,-2.6929,-2.6871,-2.7033,-2.7038,-2.7042,-2.7078,-2.7087,-2.7094,0,0,0,0,0,-2.6659,-2.671,-2.6703,-2.6714,-2.677,-2.6817,-2.6825,-2.6825,-2.6803,-2.6828,-2.684,-2.6825,-2.692,-2.6891,-2.6903,-2.6937,-2.7031,-2.7037,-2.7042,-2.7075,-2.7085,-2.7094,0,0,0,0,0,0,-2.6687,-2.6713,-2.6705,-2.6766,-2.679,-2.6813,-2.6845,-2.6836,-2.6866,-2.6862,-2.6861,-2.6868,-2.6924,-2.6936,-2.6905,-2.7004,-2.6972,-2.698,-2.6993,-2.7004,-2.7011,-2.7007,-2.6874,0,0,0,0,0,-2.6701,-2.6736,-2.6757,-2.6809,-2.6821,-2.6831,-2.6851,-2.685,-2.6875,-2.6884,-2.69,-2.6924,-2.6959,-2.6982,-2.7015,-2.7081,-2.7087,-2.711,-2.7118,-2.7125,-2.7131,-2.7168,-2.7179,-2.7061,-2.7061,-2.7061,0,0,-2.6728,-2.6747,-2.6769,-2.6815,-2.6833,-2.6871,-2.6839,-2.688,-2.6908,-2.689,-2.6943,-2.6956,-2.6983,-2.7044,-2.7071,-2.7055,-2.7165,-2.7131,-2.7136,-2.7139,-2.7175,-2.7186,-2.7196,-2.7065,-2.7064,-2.7064,0,0,-2.6798,-2.6815,-2.6861,-2.688,-2.6909,-2.6916,-2.6927,-2.6952,-2.696,-2.7013,-2.7001,-2.7035,-2.7095,-2.7116,-2.7134,-2.7215,-2.7204,-2.7226,-2.7267,-2.7303,-2.7312,-2.732,-2.735,-2.736,-2.7232,-2.7233,-2.7233,0,-2.6828,-2.6884,-2.6885,-2.6927,-2.6948,-2.6935,-2.6982,-2.7001,-2.7039,-2.7054,-2.7036,-2.7113,-2.7131,-2.7197,-2.7217,-2.7232,-2.7245,-2.7222,-2.7311,-2.7319,-2.7327,-2.7355,-2.7366,-2.7235,-2.7235,-2.7234,-2.7234,0,-2.6921,-2.696,-2.6993,-2.7031,-2.7056,-2.71,-2.7109,-2.7134,-2.7132,-2.7141,-2.7196,-2.7217,-2.7255,-2.7271,-2.7268,-2.7337,-2.7327,-2.731,-2.7278,-2.7341,-2.7367,-2.7378,-2.7239,-2.7238,-2.7237,-2.7236,0,0,-2.7007,-2.7047,-2.7059,-2.7077,-2.7109,-2.7139,-2.7184,-2.7222,-2.7244,-2.7272,-2.7309,-2.7362,-2.7348,-2.7369,-2.7369,-2.7401,-2.7465,-2.738,-2.7381,-2.7395,-2.7543,-2.7555,-2.7567,-2.7458,-2.746,-2.7462,-2.7541,0,-2.7079,-2.7157,-2.716,-2.7231,-2.7268,-2.7258,-2.7298,-2.7322,-2.7332,-2.7366,-2.7377,-2.7415,-2.7393,-2.7406,-2.7437,-2.745,-2.7494,-2.7445,-2.7493,-2.7495,-2.7486,-2.7581,-2.7593,-2.7667,-2.7551,-2.7553,-2.7554,0,-2.7172,-2.7204,-2.7279,-2.7308,-2.7323,-2.7358,-2.7395,-2.7427,-2.7455,-2.746,-2.7485,-2.7482,-2.7528,-2.7496,-2.7561,-2.7527,-2.7548,-2.7558,-2.7561,-2.7564,-2.7528,-2.7587,-2.769,-2.7701,-2.757,-2.7569,-2.7568,0,-2.7228,-2.729,-2.7343,-2.7358,-2.7393,-2.7418,-2.7434,-2.746,-2.7484,-2.7516,-2.7531,-2.7568,-2.7588,-2.7617,-2.7624,-2.76,-2.7689,-2.7657,-2.7696,-2.7696,-2.7714,-2.7712,-2.7821,-2.7728,-2.7728,-2.7728,-2.7727,0,-2.7308,-2.7354,-2.7369,-2.7401,-2.7454,-2.7458,-2.751,-2.7524,-2.7548,-2.7584,-2.7578,-2.7612,-2.7619,-2.7655,-2.7661,-2.7714,-2.7723,-2.773,-2.773,-2.773,-2.7729,-2.7743,-2.7737,-2.7731,-2.773,-2.7729,-2.7729,0,-2.7378,-2.739,-2.7447,-2.7476,-2.7485,-2.7522,-2.7547,-2.7579,-2.759,-2.7636,-2.7647,-2.7664,-2.7706,-2.7716,-2.7766,-2.777,-2.7833,-2.7829,-2.7824,-2.7823,-2.7861,-2.7858,-2.7982,-2.7999,-2.7895,-2.7896,-2.7897,0,-2.7428,-2.7464,-2.7497,-2.7521,-2.7538,-2.7576,-2.7601,-2.7608,-2.7633,-2.767,-2.7698,-2.7739,-2.7772,-2.784,-2.7857,-2.7896,-2.7893,-2.7934,-2.7899,-2.7898,-2.7894,-2.7892,-2.7896,-2.7941,-2.7942,-2.7943,-2.7943,0,-2.7515,-2.752,-2.7555,-2.7593,-2.7622,-2.7652,-2.7681,-2.7701,-2.7712,-2.7742,-2.7785,-2.7811,-2.7863,-2.7905,-2.7945,-2.7961,-2.7955,-2.7955,-2.7966,-2.7965,-2.796,-2.7964,-2.7842,-2.7951,-2.7951,-2.795,-2.795,-2.7949,-2.7577,-2.7609,-2.7638,-2.7678,-2.7701,-2.7728,-2.776,-2.7776,-2.7812,-2.7855,-2.7858,-2.7905,-2.7935,-2.7987,-2.8007,-2.8044,-2.8032,-2.8047,-2.8051,-2.8055,-2.8059,-2.7955,-2.8051,-2.8051,-2.8051,-2.8051,-2.8051,0,-2.7664,-2.7683,-2.772,-2.7761,-2.7793,-2.7785,-2.7817,-2.7845,-2.7886,-2.7915,-2.7949,-2.7999,-2.8041,-2.8062,-2.8103,-2.8129,-2.8127,-2.814,-2.8138,-2.8142,-2.8067,-2.8054,-2.8141,-2.8141,-2.8141,-2.8141,-2.8141,-2.8141,-2.7713,-2.7767,-2.7775,-2.7841,-2.786,-2.7907,-2.7926,-2.7952,-2.7975,-2.8032,-2.8066,-2.808,-2.8107,-2.815,-2.8188,-2.8193,-2.8209,-2.8223,-2.8226,-2.8156,-2.8147,-2.8138,-2.8125,-2.8226,-2.8226,-2.8298,-2.8299,-2.8299]},{"header":{"parameterUnit":"m.s-1","parameterCategory":1,"la1":30.2991,"la2":30.254,"lo1":-89.0895,"lo2":-89.0444,"dy":0.0017,"dx":0.0017,"nx":28,"ny":28,"refTime":"2024-03-13T09:00:00:Z","depth":0,"parameterNumber":3,"parameterNumberName":"V-component_of_WINDS"},"data":[0,0,0,0,0,0,0,0,0,0,0,0,0,0,0,0,0,0,0,0,0,0,0,0,0,0,0,0,0,0,0,0,0,0,0,0,0,0,0,0,0,0,0,0,0,0,0,0,0,0,0,0,0,0,0,0,0,0,2.0887,2.0887,0,2.0935,2.0935,2.0936,2.0938,2.0937,2.0937,2.0936,2.0984,2.0985,2.0987,0,0,0,0,0,0,0,0,0,0,0,0,0,2.0797,2.0798,2.0886,2.0887,2.0888,2.0935,2.0935,2.0936,2.0938,2.0937,2.0936,2.0936,2.0983,2.0985,2.0987,0,0,0,0,0,0,0,0,0,0,0,0,0,2.0839,2.0799,2.0886,2.0894,2.0896,2.0934,2.0935,2.0936,2.0938,2.0937,2.0936,2.0936,2.0982,2.0985,2.0988,2.1021,0,0,2.0996,2.0997,0,0,0,0,0,0,0,0,2.0837,2.0843,2.0893,2.0894,2.0895,2.0929,2.0921,2.0964,2.0938,2.0922,2.0936,2.0935,2.0966,2.097,2.0981,2.1023,2.1025,2.0996,2.0998,2.0999,2.1,0,0,0,0,0,0,0,2.0834,2.0841,2.0905,2.0893,2.0895,2.0896,2.0901,2.0929,2.0948,2.0923,2.0923,2.0929,2.0967,2.0978,2.0982,2.1026,2.0996,2.0998,2.1,2.1001,2.1102,2.1103,0,0,0,0,0,0,2.083,2.0838,2.0904,2.0907,2.0864,2.0898,2.0904,2.0919,2.0948,2.0951,2.093,2.0929,2.0974,2.0979,2.0984,2.1027,2.0999,2.1001,2.1003,2.1101,2.1102,2.1103,0,0,0,0,0,0,2.0828,2.0835,2.0902,2.0873,2.0881,2.0901,2.0918,2.0921,2.0932,2.0953,2.0956,2.0938,2.0974,2.098,2.1013,2.1029,2.1003,2.1005,2.11,2.1101,2.1103,2.1112,0,0,0,0,0,0,2.0825,2.0835,2.0847,2.0873,2.0883,2.093,2.0919,2.0922,2.0937,2.0937,2.0962,2.0965,2.0973,2.1009,2.1015,2.1032,2.1007,2.1098,2.11,2.1102,2.1111,2.1114,2.1117,0,0,0,0,0,2.0822,2.0847,2.0848,2.0856,2.0899,2.0931,2.0936,2.0946,2.0938,2.0952,2.0965,2.0964,2.1026,2.1012,2.102,2.1037,2.1097,2.11,2.1102,2.1109,2.1113,2.1117,0,0,0,0,0,0,2.0821,2.085,2.0852,2.0886,2.0906,2.0931,2.0948,2.095,2.0972,2.097,2.0981,2.0987,2.102,2.1032,2.1016,2.1073,2.1061,2.1065,2.1064,2.1068,2.1071,2.1067,2.1009,0,0,0,0,0,2.0825,2.0849,2.0873,2.0901,2.0911,2.0928,2.0942,2.0948,2.0969,2.0977,2.0993,2.1014,2.1038,2.1053,2.1076,2.1113,2.1119,2.1129,2.1132,2.1134,2.1138,2.116,2.1165,2.1111,2.1111,2.1111,0,0,2.0833,2.0852,2.0866,2.0901,2.0918,2.0942,2.0935,2.096,2.0979,2.0981,2.1014,2.1026,2.105,2.1085,2.1101,2.1096,2.1154,2.1137,2.1139,2.1141,2.1163,2.1168,2.1173,2.1113,2.1112,2.1112,0,0,2.0861,2.0877,2.0903,2.0921,2.0946,2.0958,2.0964,2.099,2.0999,2.1032,2.1035,2.1057,2.1098,2.1116,2.113,2.1168,2.1168,2.1175,2.1191,2.1213,2.1217,2.1221,2.1237,2.1242,2.1178,2.1178,2.1178,0,2.0867,2.0905,2.0916,2.0943,2.0959,2.0964,2.0991,2.1007,2.1039,2.105,2.1044,2.1098,2.1113,2.1154,2.1164,2.1175,2.1183,2.1172,2.1216,2.122,2.1224,2.1238,2.1244,2.1179,2.1179,2.1179,2.1179,0,2.0913,2.0939,2.0957,2.099,2.1008,2.1034,2.1051,2.1068,2.1073,2.1086,2.1121,2.1141,2.1169,2.1179,2.1184,2.1222,2.1218,2.1214,2.1202,2.123,2.1244,2.1249,2.118,2.118,2.118,2.118,0,0,2.0939,2.098,2.0986,2.1002,2.1032,2.1053,2.1081,2.111,2.1126,2.1148,2.1172,2.1209,2.1206,2.1222,2.1229,2.1248,2.128,2.1242,2.1243,2.125,2.1325,2.1329,2.1335,2.1281,2.1282,2.1283,2.1324,0,2.0971,2.1022,2.1034,2.1077,2.1103,2.1109,2.1134,2.1156,2.1169,2.1193,2.1207,2.1233,2.1227,2.1237,2.1256,2.1272,2.1295,2.1269,2.1304,2.1306,2.1299,2.1342,2.1345,2.1382,2.1329,2.133,2.1331,0,2.1015,2.104,2.1086,2.1116,2.1127,2.1149,2.1178,2.1201,2.1226,2.1235,2.1255,2.126,2.1291,2.1278,2.1321,2.1303,2.1319,2.1329,2.1331,2.1335,2.132,2.1348,2.1394,2.14,2.1339,2.1338,2.1338,0,2.1031,2.1077,2.1111,2.1125,2.1159,2.1175,2.119,2.1215,2.1233,2.1258,2.127,2.1299,2.1314,2.1337,2.1351,2.134,2.1394,2.1381,2.1402,2.1402,2.1413,2.1412,2.1464,2.1422,2.1422,2.1422,2.1422,0,2.1066,2.1094,2.112,2.1141,2.1174,2.1188,2.122,2.1236,2.1258,2.1283,2.129,2.1313,2.133,2.1356,2.1367,2.1402,2.1409,2.1417,2.142,2.1417,2.1416,2.1427,2.1425,2.1423,2.1423,2.1423,2.1422,0,2.109,2.1108,2.1146,2.1177,2.1186,2.1209,2.1235,2.1257,2.1271,2.1302,2.1311,2.1333,2.1364,2.1381,2.1419,2.1427,2.1467,2.1468,2.1459,2.146,2.1481,2.1479,2.1541,2.1551,2.1502,2.1502,2.1503,0,2.1111,2.1134,2.1168,2.1186,2.1202,2.123,2.1249,2.1265,2.1284,2.1317,2.1335,2.1366,2.1393,2.1442,2.1462,2.1492,2.1495,2.1515,2.1499,2.1496,2.1497,2.1495,2.1499,2.1517,2.1518,2.1518,2.1518,0,2.1148,2.1156,2.1183,2.1215,2.1238,2.1263,2.1288,2.1302,2.1322,2.1344,2.1377,2.1397,2.1438,2.147,2.1502,2.1518,2.1522,2.1523,2.153,2.1527,2.1522,2.1527,2.1467,2.1522,2.1521,2.1521,2.1521,2.1521,2.1172,2.1193,2.1222,2.1252,2.1273,2.1297,2.132,2.1338,2.1366,2.1401,2.1409,2.1444,2.1471,2.1515,2.1532,2.156,2.1556,2.1565,2.1568,2.157,2.1572,2.1517,2.1566,2.1566,2.1566,2.1566,2.1566,0,2.121,2.1229,2.1258,2.1293,2.1318,2.1321,2.1349,2.137,2.1401,2.1426,2.1453,2.1492,2.1524,2.1548,2.158,2.1599,2.1601,2.1607,2.1606,2.161,2.1573,2.1565,2.1604,2.1604,2.1604,2.1604,2.1604,2.1604,2.1233,2.127,2.1282,2.133,2.1349,2.1384,2.1401,2.1423,2.1444,2.1488,2.1515,2.153,2.1556,2.1591,2.1621,2.1627,2.1639,2.1645,2.1651,2.1616,2.1612,2.1608,2.1601,2.1647,2.1647,2.1686,2.1686,2.1687]}]]